Вернуться в каталог

SKYSAT C12

АктивенНаукаSSO
NORAD 43797·PAYLOAD·🇺🇸 United States

Запущен Dec 3, 2018 с Vandenberg Space Force Base

Loading…

Ближайшие Пролёты (ближайшие 24 часа)

TLE

СвежийSource: CelesTrak SupGP

Эпоха: Sep 14, 2026, 20:49 UTC

1 43797C 18099AR  26257.86789352  .00016671  00000+0  28223-3 0  2574
2 43797  96.9241 277.6506 0004356 164.0180 124.8913 15.51564164    11

Отслеживайте SKYSAT C12 в реальном времени с AllMySat

Download on the App Store